Welcome to the New NWS' Forecast!
Most changes are behind the scenes, but click here for differences you might notice.
Latest weather observations around

Bar Harbor, Hancock County-Bar Harbor Airport (KBHB)

Using English Units (Switch to International System of Units)
Date/ Time (EDT) Wind (mph) Vis. (mi) Weather Sky Cond. Temp (°F) Rel. Humidity Wind Chill (°F) Heat Index (°F) Pressure Precip. (in)
Air Dwpt 6 hour Altimeter (inHg) Sea level (inHg) 1 hr 3 hr 6 hr
Max Min
Oct 18 00:56 W 5 10 Clear CLR 37 30     76% 33   29.78 29.8      
Oct 17 23:56 SW 5 10 Clear CLR 38 30     73% 34   29.78 29.79      
Oct 17 22:56 WNW 6 10 Clear CLR 39 30     70% 35   29.77 29.78      
Oct 17 21:56 WNW 9 10 Clear   41 33     73% 35   29.76 29.78      
Oct 17 20:56 W 6 10 Clear CLR 42 36     79% 38   29.74 29.75      
Oct 17 19:56 5 10 Clear CLR 42 39     89% 39   29.72 29.73     0
Oct 17 18:56 3 10 Mostly Cloudy BKN070 BKN120 44 41     89% 43   29.7 29.71 0    
Oct 17 17:56 WNW 3 10 Mostly Cloudy SCT040 SCT055 BKN090 43 41     93% 41   29.68 29.7 0    
Oct 17 17:31 WNW 11 8 Light Rain FEW025 BKN042 OVC050 45 39     81% 39   29.69   0    
Oct 17 16:56 SW 3 10 Cloudy BKN060 OVC085 53 42     66%     29.63 29.65      
Oct 17 15:56 3 10 Cloudy OVC075 54 37     53%     29.64 29.65      
Oct 17 14:56 WSW 11 10 Partly Cloudy SCT055 55 40     57%     29.65 29.66      
Oct 17 13:56 SW 11 10 Cloudy FEW044 BKN060 OVC075 55 40     57%     29.66 29.67     0
Oct 17 12:56   10 Cloudy FEW033 SCT055 OVC090 55 40     57%     29.68 29.7 0    
Oct 17 11:56 SW 7 10 Light Rain FEW037 OVC046 51 42     71%     29.74 29.75 0    
Oct 17 09:56 SW 10 10 Partly Cloudy SCT085 51 40     65%     29.8 29.81      
Oct 17 08:56 SSW 9 10 Cloudy OVC085 49 37     63% 45   29.83 29.84      
Oct 17 07:56 SSW 9 10 Cloudy OVC090 48 40     73% 44   29.85 29.86      
Oct 17 06:56 S 9 10 Cloudy OVC110 47 40     76% 43   29.86 29.87      
Oct 17 05:56 S 9 10 Cloudy OVC095 46 39     76% 41   29.88 29.89      
Oct 17 04:56 Calm 10 Partly Cloudy SCT120 41 37     86%     29.9 29.91      
Oct 17 03:56 Calm 9 Clear CLR 38 35     89%     29.91 29.92      
Oct 17 02:56 Calm 10 Clear CLR 37 34     89%     29.92 29.93      
Oct 17 01:56 SSW 3 10 Clear CLR 40 33     76% 38   29.94 29.95      
Oct 16 23:56 SW 5 10 Clear CLR 40 28     62% 37   29.96 29.97      
Oct 16 22:56 N 3 10 Partly Cloudy SCT110 39 29     67% 37   29.95 29.96      
Oct 16 21:56 NW 3 10 Clear CLR 42 28     57% 40   29.95 29.96      
Oct 16 20:56 NW 5 10 Clear CLR 43 29     57% 40   29.95 29.96      
Oct 16 19:56 WNW 5 10 Clear   44 30     58% 41   29.94 29.96      
Oct 16 18:56 3 10 Clear CLR 46 30     53% 45   29.93 29.94      
Oct 16 17:56 WNW 7 10 Clear CLR 48 29     47% 45   29.9 29.92      
Oct 16 16:56 WNW 11 10 Clear CLR 50 30     46%     29.88 29.89      
Oct 16 15:56 W 10 10 Clear CLR 52 30     43%     29.87 29.88      
Oct 16 14:56 WNW 11 10 Clear CLR 52 31     44%     29.85 29.86      
Oct 16 13:56 W 9 10 Clear CLR 52 31     44%     29.84 29.85      
Oct 16 12:56 W 11 10 Clear CLR 52 31     44%     29.84 29.85      
Oct 16 11:56 W 13 10 Clear CLR 51 30     44%     29.84 29.85      
Oct 16 10:56 WNW 10 10 Clear CLR 49        % 45   29.84 29.85      
Oct 16 09:56 WSW 17 10 Mostly Clear FEW048 48        % 42   29.83 29.84      
Oct 16 08:56 W 8 10 Mostly Clear FEW046 46        % 42   29.81 29.83      
Oct 16 07:56 7 10 Clear CLR 44        % 40   29.78 29.79     0
Oct 16 06:56 WSW 6 10 Clear CLR 43        % 39   29.74 29.75      
Oct 16 05:56 W 9 10 Clear CLR 45        % 40   29.71 29.72      
Oct 16 04:56 W 15 10 Mostly Clear FEW040 48        % 42   29.67 29.68   0  
Oct 16 03:56 WNW 13 10 Cloudy FEW026 SCT033 OVC045 51        %     29.61 29.62      
Oct 16 03:52 WNW 14 10 Cloudy FEW026 BKN033 OVC045 52        %     29.61        
Oct 16 03:30 WNW 9 10 Cloudy BKN026 BKN032 OVC049 54        %     29.58        
Oct 16 02:56 W 8 10 Mostly Cloudy SCT047 BKN080 BKN110 56        %     29.56 29.57 0    
Oct 16 02:07 WNW 6 10 Light Rain FEW007 BKN030 OVC090 55        %     29.56   0    
Oct 16 01:56 NW 8 10 Light Rain SCT007 BKN014 OVC021 57        %     29.55 29.56 0   0
Oct 16 00:56 SW 11 5 Rain and Fog/Mist OVC005 61        %     29.55 29.56 0    
Oct 15 23:56 SSW 15 10 Light Rain OVC005 61        %     29.58 29.59 0    
Oct 15 22:56 SSW 13 6 Rain and Fog/Mist OVC005 60        %     29.62 29.63 0 0  
Oct 15 22:35 SSW 16 9 Light Rain OVC005 61        %     29.63   0    
Oct 15 21:56 SSW 17 5 Light Rain and Fog/Mist OVC003 59        %     29.66 29.67 0    
Oct 15 20:56   5 Light Rain and Fog/Mist OVC003 59        %     29.7 29.72 0    
Oct 15 20:43   3 Light Rain and Fog/Mist OVC005 57        %     29.72   0    
Oct 15 20:14 SSW 18 2.5 Light Rain and Fog/Mist OVC005 57        %     29.74   0    
Oct 15 19:56   3 Light Rain and Fog/Mist OVC005 58        %     29.75 29.77 0   0
Oct 15 19:27 S 18 2.5 Rain and Fog/Mist OVC005 57        %     29.78   0    
Oct 15 17:56 S 18 7 Light Rain OVC007 56        %     29.86 29.87 0    
Oct 15 17:11   4 Light Rain and Fog/Mist OVC007 55        %     29.9   0    
Oct 15 16:56 S 15 2.5 Light Rain and Fog/Mist OVC007 55        %     29.91 29.93 0 0  
Oct 15 16:52 S 16 2.5 Light Rain and Fog/Mist OVC007 55        %     29.92   0    
Oct 15 15:28 S 9 3 Rain and Fog/Mist BKN007 OVC013 54        %     29.99   0    
Oct 15 14:56 S 13 6 Light Rain and Fog/Mist BKN019 OVC024 53        %     30.01 30.03 0    
Oct 15 13:56 S 13 10 Light Rain BKN029 OVC034 55        %     30.05 30.06 0   0
Oct 15 12:56   10 Mostly Cloudy FEW029 BKN038 57        %     30.09 30.1      
Oct 15 11:56 S 15 10 Partly Cloudy SCT032 58        %     30.12 30.13      
Oct 15 10:56 S 13 10 Mostly Clear FEW030 57        %     30.15 30.16      
Oct 15 09:56 S 5 10 Clear CLR 53        %     30.18 30.19      
Oct 15 08:56 Calm 10 Clear CLR 45        %     30.19 30.2      
Oct 15 07:56 Calm 10 Clear CLR 38        %     30.2 30.21      
Oct 15 06:56 Calm 10 Clear CLR 32        %     30.2 30.22      
Oct 15 05:56 Calm 10 Clear CLR 34        %     30.2 30.22      
Oct 15 04:56 Calm 10 Clear CLR 35        %     30.22 30.23      
Oct 15 03:56 Calm 10 Clear CLR 35        %     30.21 30.22      
Oct 15 02:56 Calm 10 Clear CLR 36        %     30.19 30.21      
Oct 15 01:56 Calm 10 Clear CLR 38        %     30.2 30.21      
Oct 15 00:56 Calm 10 Clear   39        %     30.21 30.22      
Oct 14 23:56 WNW 5 10 Clear CLR 42        % 39   30.2 30.22      
Oct 14 22:56 W 6 10 Clear CLR 44        % 41   30.19 30.2      
Oct 14 21:56 Calm 10 Clear CLR 40        %     30.17 30.19      
Oct 14 20:56 Calm 10 Clear CLR 44        %     30.17 30.18      
Oct 14 19:56 SW 5 10 Clear CLR 47        % 45   30.16 30.17      
Oct 14 18:56 SW 6 10 Clear CLR 47        % 44   30.15 30.16      
Oct 14 17:56 SW 3 10 Clear CLR 48        % 47   30.13 30.14      
Oct 14 16:56 W 3 10 Clear CLR 53        %     30.11 30.12      
Oct 14 15:56 W 10 10 Clear CLR 53 31     43%     30.11 30.12      
Oct 14 14:56 W 8 10 Clear CLR 53 32     45%     30.1 30.11      
Oct 14 13:56 7 10 Clear CLR 52 32     46%     30.1 30.11      
Oct 14 12:56 WSW 8 10 Mostly Clear FEW045 50 32     50%     30.1 30.11      
Oct 14 11:56 NW 8 10 Clear CLR 48 32     54% 44   30.11 30.12      
Oct 14 10:56 NNW 8 10 Mostly Clear FEW033 47 33     58% 43   30.11 30.12      
Oct 14 09:56 WNW 6 10 Clear CLR 45 36     71% 42   30.12 30.14      
Oct 14 08:56 W 3 10 Clear CLR 42 36     79% 40   30.12 30.13      
Oct 14 07:56 Calm 10 Clear CLR 38 35     89%     30.1 30.11      
Oct 14 06:56 Calm 10 Clear CLR 35 33     92%     30.07 30.08      
Oct 14 05:56 Calm 10 Mostly Clear FEW050 37 34     89%     30.05 30.06      
Oct 14 04:56 W 5 10 Clear CLR 38 35     89% 34   30.04 30.05      
Oct 14 03:56 W 5 10 Partly Cloudy SCT050 39 35     86% 36   30.02 30.03      
Oct 14 02:56 3 10 Partly Cloudy SCT050 40 37     89% 38   29.99 30      
Oct 14 01:56 W 3 10 Cloudy OVC055 41 38     89% 39   29.97 29.98      
Oct 14 00:56 WSW 3 10 Cloudy OVC060 41 38     89% 39   29.96 29.97      
Oct 13 23:56 Calm 10 Cloudy OVC065 41 39     93%     29.95 29.96      
Oct 13 22:56 WNW 5 10 Mostly Cloudy BKN070 41 38     89% 38   29.92 29.93      
Oct 13 21:56 W 5 10 Cloudy OVC070 42 40     92% 39   29.91 29.92      
Oct 13 20:56 W 5 10 Partly Cloudy SCT075 43 41     93% 40   29.89 29.9      
Oct 13 19:56 WSW 5 10 Mostly Cloudy SCT048 BKN070 43 41     93% 40   29.85 29.86     0
Oct 13 18:56 WSW 3 10 Cloudy FEW012 OVC065 42 41     96% 40   29.83 29.84      
Oct 13 17:56 SW 5 10 Partly Cloudy FEW065 SCT120 42 41     96% 39   29.8 29.82      
Oct 13 16:56 WSW 3 10 Cloudy BKN070 OVC090 43 40     89% 41   29.8 29.81 0 0  
Oct 13 15:56 SSW 5 10 Light Rain FEW030 BKN050 OVC065 42 40     92% 39   29.79 29.8 0    
Oct 13 14:56 WSW 5 10 Light Rain FEW008 OVC032 43 40     89% 40   29.79 29.8 0    
Oct 13 13:56 NW 3 10 Light Rain SCT030 OVC037 42 39     89% 40   29.79 29.8 0   0
Oct 13 12:56 6 10 Light Rain FEW017 OVC038 43 39     86% 39   29.79 29.8 0    
Oct 13 12:33 WNW 6 10 Light Rain BKN017 BKN023 OVC043 43 39     87% 39   29.8   0    
Oct 13 12:13 W 3 10 Light Rain FEW021 OVC036 43 39     87% 41   29.81   0    
Oct 13 11:56 W 3 6 Light Rain and Fog/Mist FEW022 BKN029 OVC036 43 40     89% 41   29.8 29.82 0    
Oct 13 11:35 Calm 8 Light Rain BKN026 OVC031 43 37     81%     29.81   0    
Oct 13 10:56 3 10 Light Rain FEW029 BKN035 OVC048 46 37     71% 45   29.79 29.8 0 0  
Oct 13 09:56 Calm 10 Cloudy SCT050 OVC060 46 37     71%     29.78 29.79      
Oct 13 05:56 W 5 10 Clear CLR 42 37     82% 39   29.73 29.74      
Oct 13 00:56 W 5 10 Cloudy OVC047 44 36     73% 41   29.68 29.69      
Oct 12 21:56 WNW 5 10 Mostly Cloudy BKN047 46 35     65% 44   29.64 29.65      
Oct 12 17:56 NW 7 10 Clear CLR 51 42     71%     29.49 29.5      
Oct 12 11:56 3 10 Cloudy OVC042 51 48     89%     29.48 29.49      
Oct 12 08:56 N 5 10 Cloudy BKN005 OVC042 49 48     97% 47   29.51 29.53      
Oct 12 07:56 NNW 5 10 Cloudy BKN005 BKN036 OVC046 48 48     100% 46   29.51 29.53     0
Notice The following observation data may not be complete
Oct 12 05:38   10 Cloudy FEW006 SCT010 OVC050          %              
Notice The following observation data may not be complete
Oct 12 05:23   10 Cloudy FEW006 BKN010 OVC050          %              
Oct 12 01:56 N 6 5 Light Rain and Fog/Mist BKN004 OVC008 50 49     96%     29.54 29.55 0   0
Oct 11 17:56 NE 7 8 Light Rain OVC004 50 49     96%     29.68 29.7 0    
Oct 11 17:12 7 6 Rain and Fog/Mist OVC004 50 48     94%     29.7   0    
Oct 11 10:56 E 13 5 Rain and Fog/Mist OVC008 48 46     93% 43   29.9 29.91 0 0  
May 15 02:38 Calm 3 Fog/Mist SCT008 45 45     100%     29.87        
May 13 23:56 SSW 14 10 Cloudy OVC004 44 43     96% 37   30.1 30.11      
May 13 20:29 SSW 13 10 Cloudy OVC004 45 45     100% 38   30.11        
May 12 15:56 SSW 16 10 Clear CLR 53 29     39%     30.13 30.14      
May 12 04:56 Calm 10 Clear CLR 33 27     78%     30.21 30.22      
May 11 09:56 NW 9 10 Clear CLR 51 31     46%     29.88 29.89      
Jun 11 23:56 WSW 6 10 Clear   62 56     80%     29.84 29.85      
Notice The following observation data may not be complete
Jun 11 10:56   10 Clear CLR   59      %     29.86 29.87      
Jun 10 19:56 SSW 9 10 Clear CLR 59 51     75%     29.96 29.97      
Jun 09 05:56 E 6 10 Cloudy FEW050 BKN090 OVC110 51 45     79%     29.75 29.76 0    
Jun 08 08:56 SSW 10 10 Clear CLR 62 49     62%     30 30.01      
Jun 07 10:56 NNE 5 10 Clear CLR 65 41     42%     29.93 29.94      
Jun 06 03:12 NE 9 10 Mostly Cloudy BKN015 46 41     81% 42   29.99